023  
ASUS41 KAKQ 010116  
RWRAKQ  
 
REGIONAL WEATHER ROUNDUP  
NATIONAL WEATHER SERVICE WAKEFIELD VA  
900 PM EDT SAT OCT 31 2020  
 
NOTE: "FAIR" INDICATES FEW OR NO CLOUDS BELOW 12,000 FEET WITH NO  
SIGNIFICANT WEATHER AND/OR S TO VISIBILITY
. * = DENOTES  
STATION MAY NOT REPORT PRECIPITATION (E.G., RAIN,SNOW,ETC.),
 
THUNDER OR FOG.  
 
VAZ042-051-052>054-056-010200-  
NORTHERN VIRGINIA  
 
CITY SKY/WX TMP DP RH WIND PRES REMARKS
 
WASH NATIONAL CLOUDY 47 37 68 S6 30.42F  
DULLES CLOUDY 45 37 73 SE5 30.39F  
FORT BELVOIR MOCLDY 44 37 75 SE5 30.41F  
QUANTICO MOCLDY 48 40 73 S7 30.42F  
FREDERICKSBRG* CLEAR 42 42 100 CALM 30.40F  
STAFFORD* PTCLDY 41 39 93 CALM 30.45S  
WARRENTON CLOUDY 47 39 73 SE5 30.39S  
CULPEPER* CLOUDY 47 39 73 CALM 30.40S  
MANASSAS* NOT AVBL  
LEESBURG* MOCLDY 45 37 76 SE7 30.41R  
WINCHESTER CLEAR 37 34 87 SE5 30.34S  
FRONT ROYAL* FAIR 43 36 75 CALM 30.34F  
LURAY* FAIR 37 36 93 CALM 30.36S  

 
 
VAZ048-049-060>072-079>083-010200-  
CENTRAL AND SOUTH CENTRAL VIRGINIA  
 
CITY SKY/WX TMP DP RH WIND PRES REMARKS
 
RICHMOND CLEAR 45 41 86 E5 30.40F  
CHESTERFIELD* NOT AVBL  
PETERSBURG* CLEAR 42 40 93 CALM 30.41F  
HANOVER CLEAR 43 39 86 CALM 30.42S  
TAPPAHANNOCK* CLEAR 40 40 100 CALM 30.42F  
QUINTON* FAIR 43 42 94 CALM 30.40F  
CHARLOTTSVILLE CLOUDY 49 40 71 S6 30.38S  
GORDONSVILLE* CLOUDY 46 45 98 CALM 30.38F  
ORANGE* CLOUDY 43 41 93 CALM 30.39F  
LOUISA* CLOUDY 44 40 85 SE5 30.43F  
BUMPASS* MOCLDY 41 39 95 CALM 30.40S  
FARMVILLE* CLEAR 42 42 99 CALM 30.38F  
CREWE* FAIR 41 38 91 CALM 30.39F  
FORT PICKETT* FAIR 45 43 94 E5 30.39F  
CHASE CITY* FAIR 44 42 93 CALM 30.39S  
CLARKSVILLE* FAIR 46 46 100 E3 30.38S  
SOUTH HILL* CLEAR 44 42 93 CALM 30.44F  
LAWRENCEVILLE* FAIR 46 43 89 CALM 30.40F  
EMPORIA* CLEAR 45 44 95 CALM 30.41F  

 
 
VAZ088>098-010200-  
SOUTHEAST VIRGINIA  
 
CITY SKY/WX TMP DP RH WIND PRES REMARKS
 
NORFOLK CLEAR 52 43 71 E3 30.41F  
VIRGINIA BEACH PTCLDY 51 41 68 SE6 30.40F  
NORFOLK NAVAL PTCLDY 51 41 68 SE3 30.42F  
WEST POINT* CLEAR 44 41 90 E5 30.42F  
SALUDA* NOT AVBL  
NEWPORT NEWS CLEAR 47 43 86 CALM 30.41F  
LANGLEY AFB MOCLDY 52 45 77 E8 30.41F  
FORT EUSTIS CLEAR 50 43 75 E5 30.38F  
WILLIAMSBURG* CLEAR 48 46 93 CALM 30.41F  
HR EXEC AP* NOT AVBL  
FRANKLIN* CLEAR 47 43 86 CALM 30.40F  
US460-WAKEFLD PTCLDY 45 45 100 CALM 30.40F  

 
 
VAZ020-022-025-037-045-010200-  
WEST CENTRAL AND SOUTHWEST VIRGINIA  
 
CITY SKY/WX TMP DP RH WIND PRES REMARKS
 
STAUNTON* CLEAR 40 35 84 S3 30.37F  
WAYNESBORO* FAIR 41 36 82 CALM 30.37R  
HOT SPRINGS VA CLEAR 37 31 82 S8 30.31F  
LYNCHBURG PTCLDY 43 39 86 CALM 30.38S  
DANVILLE CLEAR 45 41 86 CALM 30.38F  
SOUTH BOSTON* FAIR 44 42 93 CALM 30.39S  
MARTINSVILLE CLEAR 41 41 100 CALM 30.40S  
ROANOKE CLEAR 46 35 65 CALM 30.38S  
BLACKSBURG CLEAR 44 37 78 SE5 30.38F  
DUBLIN* CLEAR 40 36 86 CALM 30.36S  
MARION* CLEAR 44 38 81 NE8 30.34S  
HILLSVILLE* CLEAR 41 38 89 CALM 30.32F  
RICHLANDS* FAIR 45 36 71 SE6 30.27F  
WISE* CLEAR 50 36 57 S5 30.27S  
ABINGDON* CLEAR 47 37 66 E6 30.28S  

 
 
MDZ021>025-VAZ099-100-010200-  
SOUTHERN MARYLAND AND THE DELMARVA PENINSULA  
 
CITY SKY/WX TMP DP RH WIND PRES REMARKS
 
PATUXENT RIVER CLEAR N/A N/A N/A CALM 30.41F  
BAY BRIDGE APT CLEAR 45 36 70 E6 30.43S  
LEONARDTOWN CLEAR 41 36 81 MISG N/A  
DOVER CLEAR 39 33 80 CALM 30.43F  
GEORGETOWN CLEAR 39 36 89 CALM 30.44F  
EASTON CLEAR 43 36 75 E5 30.46F  
CAMBRIDGE CLEAR 41 39 93 CALM 30.43F  
SALISBURY CLEAR 41 36 82 CALM 30.44F  
TANGIER NOT AVBL  
OCEAN CITY CLEAR 39 37 92 CALM 30.44F  
WALLOPS ISLAND CLEAR 43 40 89 CALM 30.44F  
ACCOMACK* CLEAR N/A N/A N/A E3 30.42F  

 
 
NCZ012>017-030>032-010200-  
NORTH CENTRAL AND EASTERN NORTH CAROLINA  
 
CITY SKY/WX TMP DP RH WIND PRES REMARKS
 
ROANOKE RAPIDS N/A 43 43 100 MISG N/A  
RALEIGH PTCLDY 49 45 86 CALM 30.38R  
ELIZABETH CITY CLEAR 53 47 79 E9 30.41F  
AHOSKIE* CLEAR 48 45 89 CALM 30.40F  
EDENTON* CLEAR 52 47 84 NE5 30.40F  
CURRITUCK* CLEAR 54 46 76 CALM 30.40F  
KILL DEVIL HLS CLEAR 55 44 64 NE5 30.39F  
MANTEO CLEAR 55 45 68 E10 30.41F  
CAPE HATTERAS CLEAR 58 49 72 NE7 30.38S  
TARBORO* FAIR 47 46 97 CALM 30.40S  
GOLDSBORO CLEAR 52 45 79 E8 30.35F  
WASHINGTON CLEAR 51 44 76 E5 30.39F  
GREENVILLE CLEAR 52 45 76 CALM 30.39F  
NEW BERN CLEAR 54 46 74 E8 30.39F  
WILMINGTON CLEAR 56 47 71 NE8 30.35S  

 
 
VAZ048-010200-  
ELSEWHERE  
 
CITY SKY/WX TMP DP RH WIND PRES REMARKS
 
HARRISBURG PA MOCLDY 45 33 63 SE7 30.39F  
BALTIMORE CLOUDY 47 37 68 CALM 30.41F  
ANNAPOLIS MOCLDY 50 41 71 SE13 30.41F  
ANDREWS AFB MOCLDY 40 38 92 CALM 30.40F  
PHILADELPHIA CLEAR 43 31 62 SE3 30.44F  
HENDERSON NC CLEAR 42 42 99 CALM 30.37F  
GREENSBORO PTCLDY 48 42 80 CALM 30.35F  
ROCKY MOUNT PTCLDY 51 45 79 NE3 30.39S  

 
 
VAZ100-010200-  
MARINE  
 
STATION/POSITION TIME TEMP WIND PRES WAVE SWELL
 
AIR SEA DIR/SP/G HT/PER HT/PER  
(UTC) (F) (DEG/KT/KT) (MB) (FT/S) (FT/S)  
CAPE MAY NJ 0024 43 70/ 1/ 2 1031.1  
LEWES DE 0024 44 59 160/ 4/ 4 1031.4  
15NM E FENWICK I 0050 N/A 6/13  
OCEAN-CITY-INLET 0024 50 62 120/ 4/ 6 1032.0  
44089 WALLOPS IS 0056 65 N/A 5/13 3/13  
WACHAPREAGUE VA 0030 53 60 110/ 6/ 10 1030.6  
THOMAS POINT MD 0100 47 62 110/ 14/ 16 1030.6F  
GOOSES REEF MD 0048 51 63 140/ 16/ 17 N/A  
COVE POINT MD 0030 49 100/ 14/ 18 1030.7  
SOLOMONS ISLAND 0030 50 65 170/ 5/ 5 1030.0  
BISHOPS HEAD MD 0024 50 60 120/ 11/ 13 1030.4  
PINEY POINT MD 0030 160/ 9/ 12 N/A  
CAMBRIDGE MD 0024 45 61 100/ 9/ 12 1030.7  
LEWISETTA VA 0030 51 59 150/ 6/ 6 1030.1  
RAPPAHANNOCK LGT 0030 90/ 13/ 14 1030.8  
STINGRAY PT 0048 54 64 100/ 12/ 14 1032.2F  
YORK RVR RNG VA 0030 54 110/ 12/ 15 N/A  
YORKTOWN VA 0030 54 65 140/ 6/ 8 1029.6  
DOMINION TERM VA 0018 56 110/ 11/ 14 1030.1  
KIPTOPEKE VA 0030 64 90/ 4/ 5 N/A  
CAPE HENRY VA 0030 55 100/ 8/ 10 1030.4  
WILLOUBY STN VA 0030 55 130/ 11/ 12 1029.2  
S CRANEY ISL VA 0030 54 90/ 6/ 8 1029.9  
64NM E OF VA BCH 0050 57 63 50/ 14/ 17 1029.5F 8/14 7/14  
DUCK PIER NC 0030 57 50/ 14/ 16 1029.4  
44100 DUCK FRF 0056 68 N/A 7/13 5/13  
44056 DUCK FRF 0026 68 N/A 7/14 5/14  
OREGON INLET NC 0018 57 64 40/ 10/ 13 1029.3  
HATTERAS NC 0030 59 65 40/ 9/ 12 1028.9  
DIAMOND SHLS NC 0050 63 76 20/ 21/ 27 N/A 7/14 7/14  
CAPE LOOKOUT NC 0000 62 50/ 17/ 19 1028.7R  

 
 
 
CLICK HERE TO GO TO PREVIOUS BULLETINS.

The Nexlab VA Page
The Nexlab NC Page
The Nexlab MD Page Main Text Page